• In Deutschland
  • Länderverzeichnis
  • Für 7 Tage
  • Wassertemperatur
  • Satellitenkarten
  • Wetterkarte
  • Widgets
  • user-avatar
    Anmelden

    Stündliche Wetter Haren

    Heute, 24 September, Montag

    Zeit Temperatur Niederschläge Wind Luftdruck Luftfeuchtigkeit
    00:00 +7°C° 0 mm 5 m/S 766 mmHg 85%
    01:00 +7°C° 0 mm 5 m/S 767 mmHg 84%
    02:00 +7°C° 0 mm 5 m/S 767 mmHg 84%
    03:00 +7°C° 0 mm 5 m/S 768 mmHg 83%
    04:00 +7°C° 0 mm 5 m/S 769 mmHg 83%
    05:00 +7°C° 0 mm 5 m/S 769 mmHg 82%
    06:00 +6°C° 0 mm 4 m/S 770 mmHg 84%
    07:00 +8°C° 0.1 mm 5 m/S 770 mmHg 77%
    08:00 +10°C° 0.1 mm 6 m/S 771 mmHg 70%
    09:00 +12°C° 0.1 mm 7 m/S 771 mmHg 63%
    10:00 +12°C° 0.2 mm 8 m/S 772 mmHg 61%
    11:00 +12°C° 0.2 mm 8 m/S 772 mmHg 59%
    12:00 +13°C° 0.2 mm 8 m/S 772 mmHg 57%
    13:00 +12°C° 0.1 mm 7 m/S 772 mmHg 57%
    14:00 +12°C° 0.1 mm 7 m/S 773 mmHg 57%
    15:00 +12°C° 0.1 mm 7 m/S 773 mmHg 57%
    16:00 +12°C° 0 mm 5 m/S 773 mmHg 63%
    17:00 +10°C° 0 mm 4 m/S 774 mmHg 68%
    18:00 +9°C° 0 mm 3 m/S 774 mmHg 74%
    19:00 +8°C° 0 mm 3 m/S 774 mmHg 77%
    20:00 +8°C° 0 mm 3 m/S 775 mmHg 79%
    21:00 +7°C° 0 mm 2 m/S 775 mmHg 82%
    22:00 +7°C° 0 mm 2 m/S 776 mmHg 84%
    23:00 +7°C° 0 mm 2 m/S 776 mmHg 85%

    Morgen, 25 September, Dienstag

    Zeit Temperatur Niederschläge Wind Luftdruck Luftfeuchtigkeit
    00:00 +7°C° 0 mm 2 m/S 776 mmHg 86%
    01:00 +7°C° 0 mm 2 m/S 776 mmHg 86%
    02:00 +7°C° 0 mm 2 m/S 776 mmHg 85%
    03:00 +7°C° 0 mm 2 m/S 776 mmHg 85%
    04:00 +7°C° 0 mm 2 m/S 777 mmHg 86%
    05:00 +7°C° 0 mm 2 m/S 777 mmHg 87%
    06:00 +6°C° 0 mm 2 m/S 777 mmHg 88%
    07:00 +8°C° 0 mm 2 m/S 777 mmHg 80%
    08:00 +10°C° 0 mm 2 m/S 777 mmHg 72%
    09:00 +13°C° 0 mm 2 m/S 778 mmHg 64%
    10:00 +14°C° 0 mm 2 m/S 778 mmHg 60%
    11:00 +15°C° 0 mm 2 m/S 777 mmHg 56%
    12:00 +16°C° 0 mm 2 m/S 777 mmHg 52%
    13:00 +16°C° 0 mm 2 m/S 777 mmHg 52%
    14:00 +16°C° 0 mm 2 m/S 777 mmHg 53%
    15:00 +16°C° 0 mm 2 m/S 777 mmHg 53%
    16:00 +14°C° 0 mm 2 m/S 776 mmHg 58%
    17:00 +13°C° 0 mm 2 m/S 776 mmHg 63%
    18:00 +11°C° 0 mm 1 m/S 776 mmHg 67%
    19:00 +10°C° 0 mm 2 m/S 776 mmHg 69%
    20:00 +9°C° 0 mm 2 m/S 776 mmHg 71%
    21:00 +9°C° 0 mm 2 m/S 776 mmHg 72%
    22:00 +8°C° 0 mm 2 m/S 776 mmHg 73%
    23:00 +8°C° 0 mm 3 m/S 776 mmHg 73%

    übermorgen, 26 September, Mittwoch

    Zeit Temperatur Niederschläge Wind Luftdruck Luftfeuchtigkeit
    00:00 +8°C° 0 mm 3 m/S 775 mmHg 73%
    01:00 +8°C° 0 mm 3 m/S 775 mmHg 73%
    02:00 +7°C° 0 mm 3 m/S 775 mmHg 73%
    03:00 +7°C° 0 mm 3 m/S 775 mmHg 73%
    04:00 +6°C° 0 mm 4 m/S 774 mmHg 72%
    05:00 +6°C° 0 mm 4 m/S 774 mmHg 71%
    06:00 +7°C° 0 mm 4 m/S 774 mmHg 70%
    07:00 +9°C° 0 mm 5 m/S 774 mmHg 65%
    08:00 +12°C° 0 mm 5 m/S 774 mmHg 60%
    09:00 +14°C° 0 mm 6 m/S 774 mmHg 55%
    10:00 +15°C° 0 mm 6 m/S 773 mmHg 53%
    11:00 +16°C° 0 mm 6 m/S 773 mmHg 51%
    12:00 +17°C° 0 mm 6 m/S 773 mmHg 49%
    13:00 +17°C° 0 mm 6 m/S 772 mmHg 50%
    14:00 +17°C° 0 mm 6 m/S 772 mmHg 51%
    15:00 +19°C° 0 mm 6 m/S 772 mmHg 53%
    16:00 +16°C° 0 mm 5 m/S 772 mmHg 58%
    17:00 +15°C° 0 mm 4 m/S 772 mmHg 63%
    18:00 +13°C° 0 mm 4 m/S 772 mmHg 69%
    19:00 +13°C° 0 mm 4 m/S 772 mmHg 70%
    20:00 +12°C° 0 mm 4 m/S 772 mmHg 72%
    21:00 +12°C° 0 mm 4 m/S 772 mmHg 74%
    22:00 +12°C° 0 mm 4 m/S 772 mmHg 75%
    23:00 +12°C° 0 mm 4 m/S 772 mmHg 75%

    27 September, Donnerstag

    Zeit Temperatur Niederschläge Wind Luftdruck Luftfeuchtigkeit
    00:00 +11°C° 0 mm 4 m/S 772 mmHg 76%
    01:00 +11°C° 0 mm 4 m/S 772 mmHg 76%
    02:00 +11°C° 0 mm 4 m/S 771 mmHg 77%
    03:00 +11°C° 0 mm 4 m/S 771 mmHg 77%
    04:00 +11°C° 0 mm 4 m/S 771 mmHg 78%
    05:00 +11°C° 0 mm 4 m/S 771 mmHg 78%
    06:00 +11°C° 0 mm 3 m/S 771 mmHg 79%
    07:00 +13°C° 0 mm 4 m/S 771 mmHg 74%
    08:00 +14°C° 0 mm 4 m/S 771 mmHg 69%
    09:00 +17°C° 0 mm 4 m/S 771 mmHg 64%
    10:00 +19°C° 0 mm 4 m/S 770 mmHg 61%
    11:00 +20°C° 0 mm 4 m/S 770 mmHg 58%
    12:00 +21°C° 0 mm 4 m/S 770 mmHg 55%
    13:00 +21°C° 0 mm 4 m/S 769 mmHg 55%
    14:00 +21°C° 0 mm 4 m/S 769 mmHg 55%
    15:00 +21°C° 0 mm 4 m/S 768 mmHg 55%
    16:00 +19°C° 0 mm 4 m/S 768 mmHg 60%
    17:00 +18°C° 0 mm 3 m/S 768 mmHg 66%
    18:00 +16°C° 0 mm 3 m/S 768 mmHg 71%
    19:00 +15°C° 0 mm 2 m/S 768 mmHg 72%
    20:00 +14°C° 0 mm 2 m/S 767 mmHg 73%
    21:00 +14°C° 0 mm 2 m/S 767 mmHg 74%
    22:00 +13°C° 0 mm 2 m/S 767 mmHg 74%
    23:00 +13°C° 0 mm 2 m/S 767 mmHg 75%

    28 September, Freitag

    Zeit Temperatur Niederschläge Wind Luftdruck Luftfeuchtigkeit
    00:00 +12°C° 0 mm 2 m/S 766 mmHg 75%
    01:00 +12°C° 0 mm 2 m/S 766 mmHg 77%
    02:00 +10°C° 0 mm 2 m/S 766 mmHg 78%
    03:00 +10°C° 0 mm 2 m/S 766 mmHg 80%
    04:00 +11°C° 0 mm 1 m/S 766 mmHg 82%
    05:00 +11°C° 0 mm 1 m/S 766 mmHg 85%
    06:00 +11°C° 0 mm 1 m/S 766 mmHg 87%
    07:00 +13°C° 0 mm 1 m/S 766 mmHg 82%
    08:00 +15°C° 0 mm 2 m/S 767 mmHg 76%
    09:00 +17°C° 0 mm 3 m/S 767 mmHg 71%
    10:00 +17°C° 0 mm 3 m/S 767 mmHg 70%
    11:00 +17°C° 0 mm 4 m/S 767 mmHg 69%
    12:00 +17°C° 0 mm 4 m/S 767 mmHg 68%
    13:00 +17°C° 0 mm 4 m/S 767 mmHg 68%
    14:00 +15°C° 0 mm 4 m/S 767 mmHg 68%
    15:00 +14°C° 0 mm 5 m/S 767 mmHg 68%
    16:00 +13°C° 0 mm 4 m/S 767 mmHg 71%
    17:00 +12°C° 0 mm 4 m/S 768 mmHg 73%
    18:00 +11°C° 0 mm 3 m/S 768 mmHg 75%
    19:00 +10°C° 0 mm 3 m/S 769 mmHg 79%
    20:00 +9°C° 0 mm 3 m/S 769 mmHg 83%
    21:00 +9°C° 0 mm 3 m/S 769 mmHg 87%
    22:00 +8°C° 0 mm 3 m/S 770 mmHg 88%
    23:00 +8°C° 0 mm 3 m/S 770 mmHg 89%

    29 September, Samstag

    Zeit Temperatur Niederschläge Wind Luftdruck Luftfeuchtigkeit
    00:00 +7°C° 0 mm 3 m/S 770 mmHg 90%
    01:00 +7°C° 0 mm 2 m/S 770 mmHg 90%
    02:00 +7°C° 0 mm 2 m/S 770 mmHg 90%
    03:00 +6°C° 0 mm 2 m/S 770 mmHg 89%
    04:00 +6°C° 0 mm 2 m/S 770 mmHg 88%
    05:00 +7°C° 0 mm 1 m/S 770 mmHg 88%
    06:00 +7°C° 0 mm 1 m/S 770 mmHg 87%
    07:00 +8°C° 0 mm 2 m/S 771 mmHg 78%
    08:00 +10°C° 0 mm 2 m/S 771 mmHg 69%
    09:00 +13°C° 0 mm 2 m/S 771 mmHg 60%
    10:00 +14°C° 0 mm 2 m/S 771 mmHg 55%
    11:00 +14°C° 0 mm 3 m/S 770 mmHg 50%
    12:00 +16°C° 0 mm 3 m/S 770 mmHg 45%
    13:00 +16°C° 0 mm 3 m/S 770 mmHg 46%
    14:00 +16°C° 0 mm 3 m/S 770 mmHg 46%
    15:00 +16°C° 0 mm 3 m/S 769 mmHg 46%
    16:00 +13°C° 0 mm 3 m/S 769 mmHg 53%
    17:00 +11°C° 0 mm 3 m/S 769 mmHg 60%
    18:00 +9°C° 0 mm 3 m/S 769 mmHg 67%
    19:00 +9°C° 0 mm 3 m/S 769 mmHg 71%
    20:00 +8°C° 0 mm 2 m/S 769 mmHg 75%
    21:00 +7°C° 0 mm 2 m/S 769 mmHg 78%
    22:00 +7°C° 0 mm 2 m/S 769 mmHg 79%
    23:00 +7°C° 0 mm 2 m/S 768 mmHg 79%
    Mehr zeigen